Pittsfield, IL

1:22 AM CST on December 08, 2016 (GMT -0600)
Pittsfield Penstone Municipal

Weather History for KPPQ - May, 2014

Change the Weather History Date:

Sunday, May 11, 2014

  Actual Average (KUIN) Record (KUIN)
Temperature  
Mean Temperature 73 °F 61 °F  
Max Temperature 84 °F 71 °F 88 °F (2000)
Min Temperature 62 °F 51 °F 31 °F (1907)
Degree Days  
Heating Degree Days 0 5  
Month to date heating degree days 69  
Since 1 July heating degree days 5499  
Cooling Degree Days 8 2  
Month to date cooling degree days 12  
Year to date cooling degree days 30  
Growing Degree Days 23 (Base 50)    
Moisture  
Dew Point 63 °F    
Average Humidity 72    
Maximum Humidity 86    
Minimum Humidity 55    
Precipitation  
Precipitation 0.10 in 0.15 in 2.03 in (2002)
Month to date precipitation 1.50  
Year to date precipitation 11.05  
Sea Level Pressure  
Sea Level Pressure 29.89 in    
Wind  
Wind Speed 15 mph (SSE)    
Max Wind Speed 25 mph    
Max Gust Speed 31 mph    
Visibility 10 miles    
Events Rain , Thunderstorm    
T = Trace of Precipitation, MM = Missing Value Source: NWS Daily Summary

Daily Weather History Graph

Daily Weather History Graph

Search for Another Location

Airport or City:

Trip Planner

Search our weather history database for the weather conditions in past years. The results will help you decide how hot, cold, wet, or windy it might be!

Date:

Astronomy

May. 11, 2014 Rise Set
Actual Time 5:52 AM CDT 8:06 PM CDT
Civil Twilight 5:22 AM CDT 8:37 PM CDT
Nautical Twilight 4:45 AM CDT 9:14 PM CDT
Astronomical Twilight 4:05 AM CDT 9:54 PM CDT
Moon 5:03 PM CDT (5/11) 3:57 AM CDT (5/11)
Length of Visible Light 15h 14m
Length of Day
14h 14m
Waxing Gibbous, 89% of the Moon is Illuminated
May 11
Waxing Gibbous
May 14
Full
May 21
Last Quarter
May 28
New
Jun 5
First Quarter

Hourly Weather History & Observations

Time (CDT) Temp. Heat Index Dew Point Humidity Pressure Visibility Wind Dir Wind Speed Gust Speed Precip Events Conditions
12:15 AM 62.6 °F - 58.5 °F 86% 29.91 in 10.0 mi SSE 23.0 mph 27.6 mph 0.01 in Rain Light Rain
12:35 AM 62.6 °F - 58.5 °F 86% 29.93 in 7.0 mi SSE 25.3 mph 29.9 mph 0.04 in Rain Light Rain
12:55 AM 62.6 °F - 58.5 °F 86% 29.92 in 10.0 mi SSE 25.3 mph 31.1 mph 0.04 in Rain Light Rain
1:15 AM 63.1 °F - 58.1 °F 84% 29.93 in 10.0 mi SSE 17.3 mph 26.5 mph N/A Rain , Thunderstorm Light Thunderstorms and Rain
1:35 AM 63.0 °F - 58.1 °F 84% 29.96 in 10.0 mi South 13.8 mph 18.4 mph N/A Rain Light Rain
1:55 AM 62.8 °F - 58.1 °F 85% 29.94 in 10.0 mi SSE 10.4 mph - 0.01 in Rain Light Rain
2:15 AM 63.5 °F - 58.1 °F 83% 29.91 in 10.0 mi South 12.7 mph 19.6 mph 0.01 in Rain , Thunderstorm Light Thunderstorms and Rain
2:35 AM 63.5 °F - 58.5 °F 84% 29.92 in 10.0 mi SSW 12.7 mph - 0.01 in Rain , Thunderstorm Light Thunderstorms and Rain
2:55 AM 63.9 °F - 58.3 °F 82% 29.93 in 10.0 mi South 13.8 mph 17.3 mph 0.02 in Rain , Thunderstorm Thunderstorms and Rain
3:15 AM 63.9 °F - 57.6 °F 80% 29.90 in 7.0 mi SSE 16.1 mph - 0.03 in Rain Light Rain
3:35 AM 64.0 °F - 56.7 °F 77% 29.90 in 10.0 mi SSE 15.0 mph - 0.03 in   Light Drizzle
3:55 AM 64.8 °F - 56.5 °F 74% 29.90 in 10.0 mi South 12.7 mph - 0.03 in Thunderstorm Scattered Clouds
4:15 AM 64.0 °F - 56.7 °F 77% 29.91 in 10.0 mi South 11.5 mph - N/A Thunderstorm Clear
4:35 AM 63.3 °F - 57.6 °F 81% 29.92 in 10.0 mi South 11.5 mph 19.6 mph N/A   Scattered Clouds
4:55 AM 62.8 °F - 57.6 °F 83% 29.91 in 10.0 mi South 9.2 mph - N/A Thunderstorm Scattered Clouds
5:15 AM 62.6 °F - 57.6 °F 84% 29.91 in 10.0 mi SSE 6.9 mph - N/A   Clear
5:35 AM 62.4 °F - 57.6 °F 84% 29.91 in 10.0 mi South 6.9 mph - N/A   Clear
5:55 AM 62.8 °F - 57.6 °F 83% 29.91 in 10.0 mi South 9.2 mph - N/A   Clear
6:15 AM 62.6 °F - 57.6 °F 84% 29.91 in 10.0 mi South 10.4 mph - N/A   Clear
6:35 AM 62.6 °F - 57.2 °F 82% 29.91 in 10.0 mi South 10.4 mph - N/A   Clear
6:55 AM 63.7 °F - 57.9 °F 81% 29.91 in 10.0 mi SSE 10.4 mph - N/A   Clear
7:15 AM 63.9 °F - 58.3 °F 82% 29.92 in 10.0 mi South 9.2 mph - N/A   Clear
7:35 AM 64.4 °F - 58.5 °F 81% 29.93 in 10.0 mi SSE 8.1 mph - N/A   Clear
7:55 AM 65.7 °F - 59.0 °F 79% 29.93 in 10.0 mi SSE 9.2 mph - N/A   Clear
8:15 AM 66.7 °F - 59.5 °F 78% 29.93 in 10.0 mi SSE 8.1 mph - N/A   Clear
8:35 AM 68.2 °F - 60.1 °F 75% 29.93 in 10.0 mi SSE 9.2 mph - N/A   Clear
8:55 AM 69.6 °F - 60.4 °F 73% 29.94 in 10.0 mi SSE 10.4 mph - N/A   Clear
9:15 AM 71.8 °F - 62.2 °F 72% 29.94 in 10.0 mi South 11.5 mph 19.6 mph N/A   Clear
9:35 AM 71.6 °F - 63.1 °F 75% 29.94 in 10.0 mi SSE 13.8 mph 18.4 mph N/A   Clear
9:55 AM 73.4 °F - 64.2 °F 73% 29.94 in 10.0 mi South 12.7 mph 18.4 mph N/A   Clear
10:15 AM 74.5 °F - 63.7 °F 69% 29.93 in 10.0 mi South 13.8 mph 21.9 mph N/A   Clear
10:35 AM 75.9 °F - 64.8 °F 68% 29.93 in 10.0 mi South 15.0 mph - N/A   Clear
10:55 AM 76.1 °F - 64.8 °F 68% 29.93 in 10.0 mi SSE 16.1 mph 19.6 mph N/A   Clear
11:15 AM 76.1 °F - 64.8 °F 68% 29.93 in 10.0 mi South 16.1 mph 20.7 mph N/A   Clear
11:35 AM 76.8 °F - 65.7 °F 68% 29.93 in 10.0 mi South 15.0 mph 21.9 mph N/A   Clear
11:55 AM 77.4 °F - 66.2 °F 68% 29.92 in 10.0 mi South 11.5 mph 21.9 mph N/A   Clear
12:15 PM 78.1 °F - 67.5 °F 70% 29.92 in 10.0 mi South 16.1 mph - N/A   Clear
12:35 PM 77.7 °F - 67.3 °F 70% 29.92 in 10.0 mi South 15.0 mph 24.2 mph N/A   Scattered Clouds
12:55 PM 77.4 °F - 67.5 °F 71% 29.91 in 10.0 mi South 12.7 mph - N/A   Mostly Cloudy
1:15 PM 78.1 °F - 68.2 °F 71% 29.90 in 10.0 mi SSE 17.3 mph 23.0 mph N/A   Mostly Cloudy
1:35 PM 79.3 °F - 69.1 °F 71% 29.89 in 10.0 mi South 13.8 mph 17.3 mph N/A   Scattered Clouds
1:55 PM 80.2 °F 83.2 °F 69.1 °F 69% 29.89 in 10.0 mi South 17.3 mph 23.0 mph N/A   Scattered Clouds
2:15 PM 80.6 °F 83.2 °F 68.0 °F 65% 29.89 in 10.0 mi South 18.4 mph - N/A   Scattered Clouds
2:35 PM 81.5 °F 84.4 °F 68.4 °F 64% 29.88 in 10.0 mi South 13.8 mph 17.3 mph N/A   Scattered Clouds
2:55 PM 82.0 °F 85.1 °F 68.2 °F 63% 29.87 in 10.0 mi South 17.3 mph 20.7 mph N/A   Scattered Clouds
3:15 PM 82.0 °F 84.9 °F 68.0 °F 62% 29.87 in 10.0 mi South 11.5 mph 21.9 mph N/A   Scattered Clouds
3:35 PM 83.3 °F 86.6 °F 68.7 °F 61% 29.85 in 10.0 mi South 18.4 mph 21.9 mph N/A   Scattered Clouds
3:55 PM 83.5 °F 86.4 °F 67.6 °F 59% 29.84 in 10.0 mi South 12.7 mph - N/A   Scattered Clouds
4:15 PM 83.7 °F 86.7 °F 67.8 °F 59% 29.84 in 10.0 mi SSE 18.4 mph - N/A   Scattered Clouds
4:35 PM 84.2 °F 87.1 °F 67.5 °F 57% 29.84 in 10.0 mi SSE 12.7 mph 20.7 mph N/A   Scattered Clouds
4:55 PM 84.2 °F 86.6 °F 66.2 °F 55% 29.84 in 10.0 mi SSE 11.5 mph 19.6 mph N/A   Mostly Cloudy
5:15 PM 84.2 °F 86.8 °F 67.1 °F 56% 29.83 in 10.0 mi SSE 10.4 mph - N/A   Scattered Clouds
5:35 PM 83.5 °F 86.0 °F 66.6 °F 57% 29.83 in 10.0 mi SSE 11.5 mph - N/A   Clear
5:55 PM 83.8 °F 86.3 °F 66.7 °F 56% 29.82 in 10.0 mi SSE 11.5 mph - N/A   Scattered Clouds
6:15 PM 83.8 °F 86.3 °F 66.4 °F 56% 29.81 in 10.0 mi SSE 10.4 mph - N/A   Clear
6:35 PM 83.5 °F 86.0 °F 66.9 °F 57% 29.80 in 10.0 mi SSE 10.4 mph - N/A   Clear
6:55 PM 82.9 °F 85.4 °F 66.7 °F 58% 29.80 in 10.0 mi SSE 10.4 mph - N/A   Clear
7:15 PM 82.0 °F 84.3 °F 66.2 °F 59% 29.80 in 10.0 mi SSE 11.5 mph - N/A   Clear
7:35 PM 80.8 °F 82.9 °F 66.4 °F 61% 29.80 in 10.0 mi SE 9.2 mph - N/A   Clear
7:55 PM 79.7 °F - 66.2 °F 63% 29.81 in 10.0 mi SE 5.8 mph - N/A   Clear
8:15 PM 78.4 °F - 66.2 °F 66% 29.82 in 10.0 mi SE 6.9 mph - N/A   Clear
8:35 PM 77.4 °F - 66.2 °F 68% 29.83 in 10.0 mi SE 5.8 mph - N/A   Clear
8:55 PM 76.1 °F - 66.4 °F 72% 29.83 in 10.0 mi SSE 8.1 mph - N/A   Clear
9:15 PM 76.1 °F - 66.4 °F 72% 29.84 in 10.0 mi SSE 8.1 mph - N/A   Clear
9:35 PM 76.1 °F - 66.2 °F 71% 29.84 in 10.0 mi SSE 9.2 mph - N/A   Clear
9:55 PM 75.9 °F - 66.0 °F 71% 29.84 in 10.0 mi SSE 9.2 mph - N/A   Clear
10:15 PM 76.1 °F - 65.8 °F 70% 29.85 in 10.0 mi SSE 10.4 mph - N/A   Clear
10:35 PM 76.5 °F - 65.8 °F 70% 29.85 in 10.0 mi SSE 13.8 mph 17.3 mph N/A   Clear
10:55 PM 77.0 °F - 66.2 °F 69% 29.85 in 10.0 mi South 12.7 mph 19.6 mph N/A   Clear
11:15 PM 76.6 °F - 66.2 °F 70% 29.85 in 10.0 mi South 15.0 mph 20.7 mph N/A   Clear
11:35 PM 76.5 °F - 66.2 °F 70% 29.86 in 10.0 mi South 13.8 mph 19.6 mph N/A   Clear
11:55 PM 75.4 °F - 66.4 °F 73% 29.86 in 10.0 mi South 12.7 mph - N/A   Clear